[[{"header":{"parameterUnit":"m.s-1","parameterCategory":1,"la1":30.2991,"la2":30.254,"lo1":-89.0895,"lo2":-89.0444,"dy":0.0017,"dx":0.0017,"nx":28,"ny":28,"refTime":"2024-05-24T09:00:00:Z","depth":0,"parameterNumber":2,"parameterNumberName":"U-component_of_WINDS"},"data":[0,0,0,0,0,0,0,0,0,0,0,0,0,0,0,0,0,0,0,0,0,0,0,0,0,0,0,0,0,0,0,0,0,0,0,0,0,0,0,0,0,0,0,0,0,0,0,0,0,0,0,0,0,0,0,0,0,0,0.723,0.723,0,0.7207,0.7207,0.7207,0.7154,0.7153,0.7152,0.7151,0.7129,0.713,0.713,0,0,0,0,0,0,0,0,0,0,0,0,0,0.7228,0.7229,0.723,0.723,0.7229,0.7207,0.7207,0.7207,0.7154,0.7153,0.7151,0.715,0.7129,0.713,0.713,0,0,0,0,0,0,0,0,0,0,0,0,0,0.722,0.7229,0.723,0.72,0.7197,0.7207,0.7207,0.7206,0.7154,0.7153,0.7151,0.715,0.7129,0.7129,0.713,0.7167,0,0,0.7132,0.7133,0,0,0,0,0,0,0,0,0.722,0.722,0.7205,0.7202,0.7199,0.7182,0.7198,0.7193,0.7155,0.7171,0.7151,0.7149,0.7148,0.7147,0.7146,0.7166,0.7165,0.7132,0.7133,0.7133,0.7133,0,0,0,0,0,0,0,0.7221,0.7221,0.7221,0.7205,0.7201,0.7189,0.7185,0.7197,0.7169,0.7169,0.7165,0.7163,0.7146,0.7146,0.7146,0.7165,0.7132,0.7133,0.7133,0.7134,0.7213,0.7215,0,0,0,0,0,0,0.7226,0.7221,0.7222,0.722,0.7206,0.719,0.7186,0.7189,0.7169,0.7164,0.7165,0.7161,0.7146,0.7145,0.7145,0.7186,0.7133,0.7134,0.7134,0.7211,0.7213,0.7215,0,0,0,0,0,0,0.7226,0.7226,0.7222,0.722,0.7218,0.7192,0.7195,0.7189,0.7189,0.7165,0.716,0.717,0.7144,0.7144,0.7162,0.7184,0.7134,0.7135,0.7209,0.7212,0.7214,0.7269,0,0,0,0,0,0,0.7226,0.7227,0.724,0.722,0.7219,0.724,0.7196,0.719,0.719,0.7185,0.7168,0.7164,0.7143,0.7161,0.7162,0.7184,0.7135,0.7207,0.721,0.7214,0.7265,0.7273,0.728,0,0,0,0,0,0.7226,0.7257,0.7241,0.7242,0.7235,0.7241,0.724,0.7215,0.7192,0.7206,0.719,0.7165,0.7182,0.7163,0.7164,0.7187,0.7206,0.721,0.7213,0.7262,0.7271,0.728,0,0,0,0,0,0,0.7281,0.7254,0.7236,0.7261,0.7254,0.7232,0.7248,0.7226,0.7225,0.722,0.7189,0.7186,0.7208,0.7199,0.7179,0.7221,0.7189,0.7194,0.7226,0.7235,0.7242,0.7244,0.7136,0,0,0,0,0,0.7296,0.7303,0.7279,0.7304,0.7301,0.7276,0.7277,0.7258,0.7249,0.7246,0.7232,0.7225,0.7228,0.7231,0.7233,0.7264,0.7259,0.728,0.7287,0.7294,0.7297,0.7312,0.7321,0.7228,0.7228,0.7228,0,0,0.7327,0.7313,0.732,0.7314,0.7306,0.7314,0.7273,0.7283,0.7289,0.7248,0.7263,0.7253,0.7243,0.7267,0.7277,0.726,0.7322,0.7298,0.7304,0.7304,0.7317,0.7326,0.7333,0.723,0.723,0.723,0,0,0.7388,0.7378,0.7397,0.7389,0.7377,0.736,0.7365,0.7346,0.7338,0.7353,0.7322,0.7328,0.7335,0.7329,0.7327,0.7384,0.736,0.7386,0.7425,0.7439,0.7447,0.7453,0.7473,0.748,0.739,0.739,0.739,0,0.7428,0.7438,0.741,0.7421,0.742,0.7382,0.7401,0.7395,0.7385,0.7385,0.7367,0.7374,0.7365,0.7386,0.74,0.74,0.7404,0.7387,0.7448,0.7454,0.7459,0.7478,0.7485,0.7393,0.7393,0.7393,0.7392,0,0.7487,0.7495,0.7512,0.7502,0.7502,0.7518,0.7492,0.7496,0.7477,0.7462,0.7477,0.7465,0.7463,0.7467,0.7449,0.7486,0.7476,0.7453,0.7421,0.7472,0.7488,0.7495,0.7398,0.7397,0.7396,0.7395,0,0,0.7581,0.7555,0.7562,0.7556,0.754,0.7545,0.7559,0.7557,0.756,0.7555,0.7565,0.7572,0.755,0.7548,0.7529,0.7542,0.7587,0.7517,0.7516,0.753,0.7626,0.7642,0.7651,0.7571,0.7573,0.7574,0.7626,0,0.7637,0.7658,0.7633,0.7659,0.7666,0.763,0.7642,0.7633,0.762,0.7623,0.7608,0.7613,0.7585,0.7583,0.7594,0.7579,0.7606,0.7575,0.758,0.7581,0.7583,0.766,0.7677,0.7728,0.7633,0.7634,0.7635,0,0.7705,0.7701,0.7728,0.7709,0.7711,0.7722,0.7717,0.7721,0.7711,0.77,0.7697,0.7674,0.7686,0.7655,0.7671,0.7651,0.7652,0.7645,0.7646,0.7645,0.761,0.766,0.7743,0.7751,0.7645,0.7644,0.7643,0,0.7769,0.7771,0.7787,0.7784,0.7763,0.7771,0.7763,0.7751,0.7751,0.7747,0.7747,0.7745,0.7744,0.7743,0.772,0.77,0.7739,0.7707,0.773,0.7731,0.7739,0.7739,0.7823,0.7742,0.7742,0.7742,0.7742,0,0.7833,0.7851,0.7815,0.7825,0.7844,0.7815,0.7834,0.7823,0.7812,0.7819,0.7789,0.7796,0.7766,0.777,0.7752,0.7768,0.7768,0.776,0.7754,0.7762,0.7763,0.7761,0.7757,0.7744,0.7743,0.7743,0.7743,0,0.7907,0.7885,0.7899,0.7878,0.7873,0.7888,0.787,0.7878,0.7862,0.7872,0.7872,0.7848,0.7851,0.7828,0.7828,0.7816,0.784,0.7829,0.7843,0.7839,0.7864,0.7861,0.7949,0.7959,0.7873,0.7873,0.7874,0,0.7949,0.7962,0.7941,0.7943,0.7936,0.7941,0.794,0.7913,0.7914,0.7903,0.7912,0.7913,0.7912,0.7919,0.7901,0.7901,0.7889,0.792,0.7889,0.7895,0.7888,0.7887,0.7888,0.7926,0.7927,0.7928,0.7929,0,0.8025,0.8013,0.8013,0.801,0.801,0.8006,0.8,0.8004,0.7974,0.7976,0.7979,0.7978,0.7977,0.7978,0.7974,0.7965,0.7942,0.7939,0.7944,0.7951,0.7958,0.7954,0.7859,0.7937,0.7936,0.7935,0.7935,0.7935,0.8083,0.8093,0.8079,0.8081,0.8073,0.8068,0.8075,0.806,0.8061,0.8057,0.8041,0.8047,0.8036,0.8028,0.8022,0.8026,0.8011,0.8019,0.8021,0.8023,0.8027,0.7958,0.8025,0.8025,0.8025,0.8024,0.8024,0,0.8157,0.8147,0.8148,0.814,0.8141,0.8119,0.8111,0.8114,0.8118,0.811,0.8109,0.8112,0.8113,0.8096,0.8094,0.8101,0.809,0.8101,0.81,0.8098,0.8041,0.8036,0.811,0.811,0.811,0.811,0.811,0.811,0.8195,0.8209,0.8195,0.8205,0.8195,0.8199,0.8197,0.8192,0.8185,0.8189,0.8189,0.8178,0.8166,0.8163,0.8163,0.8158,0.8158,0.8173,0.8164,0.8111,0.8102,0.8094,0.809,0.8174,0.8174,0.8221,0.8222,0.8222]},{"header":{"parameterUnit":"m.s-1","parameterCategory":1,"la1":30.2991,"la2":30.254,"lo1":-89.0895,"lo2":-89.0444,"dy":0.0017,"dx":0.0017,"nx":28,"ny":28,"refTime":"2024-05-24T09:00:00:Z","depth":0,"parameterNumber":3,"parameterNumberName":"V-component_of_WINDS"},"data":[0,0,0,0,0,0,0,0,0,0,0,0,0,0,0,0,0,0,0,0,0,0,0,0,0,0,0,0,0,0,0,0,0,0,0,0,0,0,0,0,0,0,0,0,0,0,0,0,0,0,0,0,0,0,0,0,0,0,4.9606,4.9607,0,4.9673,4.9673,4.9674,4.9632,4.963,4.9628,4.9626,4.9688,4.9692,4.9695,0,0,0,0,0,0,0,0,0,0,0,0,0,4.9436,4.944,4.9606,4.9607,4.9608,4.9673,4.9673,4.9674,4.9632,4.963,4.9627,4.9625,4.9687,4.9691,4.9695,0,0,0,0,0,0,0,0,0,0,0,0,0,4.9507,4.9441,4.9606,4.9595,4.9595,4.9672,4.9673,4.9675,4.9633,4.963,4.9627,4.9624,4.9686,4.9691,4.9696,4.9787,0,0,4.9712,4.9714,0,0,0,0,0,0,0,0,4.9503,4.9513,4.9596,4.9596,4.9596,4.9641,4.9636,4.9712,4.9633,4.9618,4.9626,4.9623,4.9675,4.968,4.9699,4.979,4.9792,4.9712,4.9715,4.9718,4.9719,0,0,0,0,0,0,0,4.9498,4.951,4.9632,4.9597,4.9597,4.9584,4.9591,4.965,4.9662,4.9619,4.9616,4.9625,4.9674,4.9694,4.97,4.9793,4.9712,4.9717,4.972,4.9722,4.9959,4.9962,0,0,0,0,0,0,4.9495,4.9506,4.963,4.9634,4.9541,4.959,4.9597,4.9629,4.9661,4.9663,4.9627,4.9623,4.9687,4.9694,4.9702,4.981,4.9718,4.9723,4.9726,4.9956,4.996,4.9964,0,0,0,0,0,0,4.9492,4.9507,4.9628,4.957,4.9584,4.9596,4.9632,4.9632,4.9653,4.9667,4.9668,4.9647,4.9685,4.9695,4.9766,4.9811,4.9725,4.973,4.9953,4.9957,4.9962,5.0026,0,0,0,0,0,0,4.9487,4.9506,4.9542,4.9571,4.9587,4.9692,4.9635,4.9636,4.9662,4.9657,4.9686,4.9688,4.9683,4.9759,4.9771,4.9817,4.9734,4.9949,4.9955,4.996,5.002,5.0032,5.0043,0,0,0,0,0,4.9481,4.9556,4.9544,4.9559,4.9633,4.9695,4.9704,4.97,4.9666,4.9702,4.9711,4.9687,4.9804,4.9766,4.978,4.9828,4.9946,4.9953,4.996,5.0015,5.003,5.0043,0,0,0,0,0,0,4.9531,4.956,4.9547,4.9634,4.9663,4.9688,4.9733,4.9716,4.9753,4.9746,4.9737,4.9744,4.9818,4.983,4.9787,4.9917,4.9869,4.988,4.9906,4.9921,4.9932,4.9927,4.9738,0,0,0,0,0,4.9552,4.9602,4.9624,4.9699,4.9714,4.9721,4.9748,4.9742,4.977,4.9781,4.9796,4.9823,4.9865,4.9894,4.9934,5.0021,5.0026,5.0061,5.0073,5.0082,5.0091,5.0136,5.0152,4.9987,4.9987,4.9987,0,0,4.9596,4.9618,4.965,4.9709,4.9731,4.978,4.9731,4.9786,4.9822,4.9789,4.9857,4.9869,4.9898,4.9977,5.0013,4.9989,5.0137,5.0091,5.0099,5.0102,5.0145,5.0161,5.0175,4.9992,4.9991,4.999,0,0,4.9702,4.9724,4.9789,4.9812,4.9845,4.9849,4.9865,4.9893,4.9899,4.9968,4.9944,4.9986,5.006,5.0082,5.0102,5.0215,5.0194,5.0228,5.0289,5.0333,5.0346,5.0358,5.0397,5.0411,5.0237,5.0237,5.0237,0,4.9752,4.9828,4.9823,4.988,4.9906,4.988,4.9944,4.9965,5.0009,5.0027,5.0001,5.0093,5.0111,5.0194,5.0222,5.024,5.0255,5.0225,5.0345,5.0356,5.0367,5.0404,5.0419,5.0241,5.0241,5.024,5.024,0,4.9887,4.994,4.9987,5.0033,5.0064,5.0124,5.0126,5.0158,5.0149,5.0155,5.0224,5.0244,5.0288,5.0307,5.0298,5.0389,5.0374,5.0347,5.0299,5.0387,5.0421,5.0436,5.0247,5.0246,5.0244,5.0243,0,0,5.0026,5.0068,5.0085,5.0105,5.014,5.018,5.0237,5.0282,5.0308,5.0339,5.0386,5.045,5.0425,5.0448,5.0441,5.048,5.0567,5.0448,5.0448,5.0469,5.0666,5.0686,5.0703,5.0553,5.0556,5.0558,5.0664,0,5.0133,5.0236,5.0233,5.0328,5.0376,5.0351,5.0401,5.0427,5.0434,5.0473,5.048,5.0525,5.0489,5.0503,5.0541,5.0549,5.0606,5.0541,5.0595,5.0597,5.0588,5.0721,5.0743,5.0841,5.0677,5.068,5.0681,0,5.0272,5.0309,5.041,5.0437,5.0456,5.0502,5.0541,5.0581,5.0608,5.061,5.0636,5.0623,5.0679,5.063,5.0706,5.0662,5.0683,5.0691,5.0694,5.0698,5.0644,5.0728,5.0873,5.0887,5.0703,5.0701,5.07,0,5.0362,5.0437,5.0507,5.0524,5.0558,5.059,5.0605,5.063,5.0656,5.069,5.0707,5.0747,5.0768,5.0798,5.0794,5.076,5.0871,5.0823,5.0873,5.0873,5.0897,5.0895,5.1047,5.0913,5.0912,5.0912,5.0912,0,5.0481,5.0543,5.0547,5.059,5.0658,5.0653,5.072,5.0731,5.0753,5.0796,5.0777,5.0817,5.081,5.085,5.0847,5.091,5.092,5.0922,5.092,5.0923,5.0923,5.0937,5.0929,5.0916,5.0915,5.0914,5.0914,0,5.0593,5.0599,5.0673,5.0699,5.0707,5.0755,5.0776,5.0816,5.0821,5.0875,5.0887,5.0895,5.094,5.094,5.0992,5.099,5.1066,5.1057,5.1058,5.1056,5.1106,5.1101,5.127,5.1291,5.1144,5.1146,5.1147,0,5.0669,5.0716,5.0747,5.0776,5.0793,5.0839,5.0866,5.0862,5.0891,5.0925,5.096,5.1004,5.1039,5.1112,5.1121,5.116,5.1151,5.1208,5.1156,5.1158,5.115,5.1147,5.1151,5.1217,5.1219,5.122,5.1221,0,5.0802,5.0802,5.0844,5.0886,5.0919,5.0951,5.0981,5.1005,5.1004,5.1037,5.1084,5.1111,5.1164,5.1207,5.1245,5.1258,5.1239,5.1238,5.1251,5.1254,5.1252,5.1253,5.1084,5.1233,5.1232,5.1231,5.1231,5.123,5.0897,5.0938,5.0966,5.1012,5.1035,5.1063,5.1101,5.1111,5.1151,5.1195,5.119,5.1242,5.1267,5.1315,5.1331,5.1371,5.135,5.137,5.1375,5.138,5.1385,5.1247,5.1377,5.1377,5.1377,5.1376,5.1376,0,5.1029,5.1046,5.1088,5.1131,5.1167,5.1148,5.118,5.121,5.1257,5.1283,5.1318,5.1371,5.1413,5.1425,5.1465,5.1494,5.1486,5.1504,5.1501,5.1504,5.1401,5.1385,5.1509,5.1509,5.1509,5.1509,5.1509,5.1509,5.1101,5.1169,5.1172,5.1249,5.1265,5.1318,5.1337,5.1362,5.1383,5.1444,5.1479,5.1487,5.1507,5.1548,5.1584,5.1586,5.1601,5.1623,5.1622,5.1525,5.1512,5.1499,5.1484,5.1626,5.1627,5.1721,5.1722,5.1723]}]]